Flag for Germany Weather past 2 weeks in Leutkirch im Allgäu, Baden-Württemberg, Germany

Now
50 °F

Fog.


Feels Like: 49 °F
Forecast: 33 / 58 °F
Wind: 3 mph from Northwest

Location: Kempten

Current Time: Sep 22, 2014 at 10:21:54 AM

Latest Report: Sep 22, 2014 at 10:00 AM


Visibility: 4 mi

Pressure: 30.13 "Hg

Humidity: 84%

Dew point: 45 °F

Location of Leutkirch im AllgäuLocation

Historic Weather in Leutkirch im Allgäu — Graph

°F

Leutkirch im Allgäu temperature yesterday

Maximum temperature yesterday: 69 °F (at 3:00 PM)
Minimum temperature yesterday: 54 °F (at 6:00 AM)
Average temperature yesterday: 58 °F

Past Weeks' High & Low Weather Summary

 TemperatureHumidityPressure
High77 °F (Sep 8, 5:00 PM)99% (Sep 10, 1:00 AM)30.15 "Hg (Sep 10, 1:00 AM)
Low48 °F (Sep 17, 7:00 AM)38% (Sep 18, 2:00 PM)29.79 "Hg (Sep 17, 4:00 PM)
Average59 °F82%29.99 "Hg
* Reported Sep 7 9:00 AM — Sep 22 9:00 AM, Leutkirch im Allgäu, Weather by CustomWeather, © 2014

Note: Actual official high and low records may vary slightly from our data, if they occured in-between our weather recording intervals... More about our weather records

Advertising

Leutkirch im Allgäu weather history for previous 24 hours

 ConditionsComfort  
Time TempWeatherWind HumidityBarometerVisibility
9:00 AM
Sep 22
50 °FPassing clouds.1 mph86%30.11 "Hg6 mi
8:00 AM49 °FFog.2 mph92%30.13 "Hg4 mi
7:00 AM49 °FFog.2 mph95%30.11 "Hg4 mi
6:00 AM50 °FLow clouds.No wind97%30.08 "Hg6 mi
4:00 AM48 °FOvercast.No wind96%30.10 "Hg5 mi
3:00 AM49 °FLight rain. Low clouds.No wind94%30.11 "Hg3 mi
2:00 AM52 °FLight rain. Overcast.1 mph96%30.07 "Hg6 mi
1:00 AM53 °FLight freezing rain. Low clouds.No wind96%30.07 "Hg12 mi
12:00 AM53 °FLight rain. Low clouds.2 mph96%30.05 "Hg4 mi
10:00 PM
Sep 21
56 °FLight rain. Overcast.3 mph95%29.98 "Hg4 mi
9:00 PM56 °FOvercast.3 mph93%29.97 "Hg28 mi
8:00 PM56 °FDrizzle. Overcast.3 mph92%29.97 "Hg34 mi
7:00 PM56 °FLight rain. Overcast.3 mph94%29.98 "Hg4 mi
6:00 PM56 °FLight rain. Overcast.3 mph91%29.98 "Hg3 mi
5:00 PM56 °FLight freezing rain. Overcast.3 mph91%30.00 "Hg11 mi
4:00 PM65 °FScattered clouds.5 mph64%29.91 "Hg40 mi
3:00 PM69 °FPassing clouds.3 mph57%29.90 "Hg14 mi
2:00 PM65 °FOvercast.5 mph63%29.95 "Hg43 mi
1:00 PM63 °FOvercast.6 mph67%29.98 "Hg40 mi
12:00 PM61 °FOvercast.3 mph77%30.00 "Hg43 mi
10:00 AM59 °FOvercast.2 mph88%30.01 "Hg34 mi
Weather by CustomWeather, © 2014

See weather overviewHow to use our weather pages